Weather History for Knox, IN

Change the Weather History Date:

Wednesday, December 26, 2012

  Actual Average (KVPZ) Record (KVPZ)
Temperature  
Mean Temperature 28 °F 25 °F  
Max Temperature 29 °F 32 °F 52 °F (2008)
Min Temperature 26 °F 18 °F 2 °F (2000)
Degree Days  
Heating Degree Days 38 40  
Month to date heating degree days 943  
Since 1 July heating degree days 2201  
Cooling Degree Days 0 0  
Month to date cooling degree days 0  
Year to date cooling degree days 713  
Moisture  
Dew Point 24 °F    
Average Humidity 86    
Maximum Humidity 96    
Minimum Humidity 78    
Precipitation  
Precipitation 0.00 in 0.06 in 0.13 in (2008)
Month to date precipitation 1.85  
Year to date precipitation 37.18  
Sea Level Pressure  
Sea Level Pressure 29.97 in    
Wind  
Wind Speed 15 mph (NNE)    
Max Wind Speed 21 mph    
Max Gust Speed 28 mph    
Visibility 7 miles    
Events      
T = Trace of Precipitation, MM = Missing Value Source: NWS Daily Summary

Daily Weather History Graph

Daily Weather History Graph

Search for Another Location

Airport:

Trip Planner

Search our weather history database for the weather conditions in past years. The results will help you decide how hot, cold, wet, or windy it might be!

Date:

Astronomy

Dec. 26, 2012 Rise Set
Actual Time 7:11 AM CST 4:23 PM CST
Civil Twilight 6:40 AM CST 4:55 PM CST
Nautical Twilight 6:05 AM CST 5:29 PM CST
Astronomical Twilight 5:31 AM CST 6:03 PM CST
Moon 3:17 PM CST (12/26) 5:34 AM CST (12/26)
Length of Visible Light 10h 14m
Length of Day
9h 12m
Waxing Gibbous, 97% of the Moon is Illuminated
Dec 26
Waxing Gibbous
Dec 28
Full
Jan 4
Last Quarter
Jan 11
New
Jan 18
First Quarter

Hourly Weather History & Observations

Time (CST) Temp. Windchill Dew Point Humidity Pressure Visibility Wind Dir Wind Speed Gust Speed Precip Events Conditions
12:15 AM 26.6 °F 16.2 °F 21.2 °F 80% 30.14 in 10.0 mi NE 11.5 mph - N/A   Clear
12:35 AM 26.8 °F 15.9 °F 21.2 °F 79% 30.13 in 10.0 mi NE 12.7 mph - N/A   Clear
12:55 AM 27.1 °F 18.2 °F 21.6 °F 80% 30.14 in 10.0 mi NE 9.2 mph - N/A   Clear
1:15 AM 27.1 °F 16.4 °F 21.9 °F 81% 30.12 in 10.0 mi NNE 12.7 mph - N/A   Scattered Clouds
1:35 AM 27.1 °F 16.9 °F 21.9 °F 81% 30.09 in 10.0 mi NNE 11.5 mph - N/A   Mostly Cloudy
1:55 AM 27.1 °F 15.9 °F 22.1 °F 81% 30.08 in 10.0 mi NE 13.8 mph 18.4 mph N/A   Mostly Cloudy
2:15 AM 27.3 °F 15.6 °F 21.9 °F 80% 30.06 in 10.0 mi NNE 15.0 mph - N/A   Overcast
2:35 AM 27.3 °F 15.2 °F 21.9 °F 80% 30.04 in 10.0 mi NNE 16.1 mph - N/A   Overcast
2:55 AM 27.5 °F 16.8 °F 22.1 °F 80% 30.07 in 10.0 mi NNE 12.7 mph 16.1 mph N/A   Overcast
3:15 AM 27.5 °F 16.3 °F 22.3 °F 81% 30.05 in 10.0 mi NNE 13.8 mph 18.4 mph N/A   Overcast
3:35 AM 27.5 °F 16.3 °F 22.8 °F 83% 30.05 in 10.0 mi NNE 13.8 mph - N/A   Overcast
3:55 AM 27.9 °F 16.8 °F 23.4 °F 83% 30.03 in 10.0 mi NNE 13.8 mph - N/A   Overcast
4:15 AM 27.9 °F 15.5 °F 23.5 °F 84% 30.01 in 10.0 mi NNE 17.3 mph 24.2 mph N/A   Overcast
4:55 AM 28.2 °F 15.5 °F 23.7 °F 83% 30.00 in 10.0 mi NNE 18.4 mph - N/A   Overcast
5:15 AM 28.4 °F 16.2 °F 23.9 °F 83% 29.98 in 10.0 mi NNE 17.3 mph - N/A   Overcast
5:55 AM 28.6 °F 16.4 °F 24.8 °F 86% 29.97 in 10.0 mi NNE 17.3 mph 24.2 mph N/A   Overcast
6:15 AM 28.8 °F 16.2 °F 25.2 °F 86% 29.96 in 10.0 mi NE 18.4 mph 25.3 mph N/A   Overcast
6:35 AM 28.8 °F 17.0 °F 25.2 °F 86% 29.96 in 10.0 mi NE 16.1 mph 26.5 mph N/A   Overcast
6:55 AM 29.1 °F 16.7 °F 25.3 °F 86% 29.95 in 10.0 mi NE 18.4 mph 24.2 mph N/A   Overcast
7:15 AM 28.9 °F 16.1 °F 25.0 °F 85% 29.94 in 10.0 mi NNE 19.6 mph 23.0 mph N/A   Overcast
7:35 AM 28.8 °F 16.6 °F 24.6 °F 84% 29.94 in 10.0 mi NNE 17.3 mph 27.6 mph N/A   Overcast
7:55 AM 28.8 °F 15.5 °F 24.4 °F 84% 29.93 in 10.0 mi NNE 20.7 mph 26.5 mph N/A   Overcast
8:15 AM 28.9 °F 16.5 °F 24.1 °F 82% 29.93 in 10.0 mi NNE 18.4 mph 24.2 mph N/A   Overcast
8:35 AM 28.9 °F 16.1 °F 23.9 °F 81% 29.93 in 10.0 mi NNE 19.6 mph - N/A   Overcast
8:55 AM 28.9 °F 16.5 °F 24.1 °F 82% 29.93 in 10.0 mi NNE 18.4 mph - N/A   Overcast
9:15 AM 29.1 °F 16.7 °F 23.9 °F 81% 29.93 in 10.0 mi NNE 18.4 mph 25.3 mph N/A   Overcast
9:35 AM 29.1 °F 16.7 °F 24.3 °F 82% 29.93 in 4.0 mi NNE 18.4 mph 25.3 mph N/A   Overcast
9:55 AM 28.9 °F 16.5 °F 25.2 °F 86% 29.93 in 3.0 mi NNE 18.4 mph 25.3 mph N/A   Overcast
10:15 AM 28.6 °F 16.4 °F 25.7 °F 89% 29.92 in 2.0 mi NNE 17.3 mph 24.2 mph N/A   Overcast
10:35 AM 28.4 °F 15.8 °F 26.2 °F 92% 29.91 in 1.5 mi NNE 18.4 mph 25.3 mph N/A   Overcast
10:55 AM 28.4 °F 15.8 °F 26.6 °F 93% 29.90 in 1.5 mi NNE 18.4 mph 25.3 mph N/A   Overcast
11:15 AM 28.2 °F 15.9 °F 26.6 °F 94% 29.89 in 1.8 mi NNE 17.3 mph 25.3 mph N/A   Overcast
11:35 AM 28.4 °F 15.8 °F 27.0 °F 94% 29.88 in 1.2 mi NNE 18.4 mph - N/A   Overcast
11:55 AM 28.4 °F 15.4 °F 27.1 °F 95% 29.88 in 1.2 mi NNE 19.6 mph 24.2 mph N/A   Overcast
12:15 PM 28.4 °F 15.8 °F 27.1 °F 95% 29.88 in 1.0 mi NNE 18.4 mph 25.3 mph N/A   Overcast
12:35 PM 28.4 °F 16.6 °F 27.1 °F 95% 29.88 in 0.8 mi NNE 16.1 mph - N/A   Overcast
12:55 PM 28.4 °F 17.0 °F 27.3 °F 96% 29.88 in 0.8 mi North 15.0 mph - N/A   Overcast
1:15 PM 28.6 °F 16.8 °F 27.3 °F 95% 29.88 in 0.5 mi North 16.1 mph 24.2 mph N/A   Overcast
1:35 PM 28.4 °F 16.2 °F 27.3 °F 96% 29.88 in 0.5 mi North 17.3 mph - N/A   Overcast
1:55 PM 28.4 °F 15.8 °F 27.1 °F 95% 29.88 in 0.5 mi North 18.4 mph - N/A   Overcast
2:15 PM 28.4 °F 16.2 °F 27.1 °F 95% 29.89 in 0.8 mi North 17.3 mph - N/A   Overcast
2:55 PM 28.2 °F 15.9 °F 26.6 °F 94% 29.90 in 0.8 mi North 17.3 mph - N/A   Overcast
3:15 PM 28.0 °F 16.1 °F 26.6 °F 94% 29.91 in 0.8 mi North 16.1 mph - N/A   Overcast
3:35 PM 28.0 °F 15.7 °F 26.6 °F 94% 29.91 in 1.2 mi North 17.3 mph - N/A   Overcast
3:55 PM 28.0 °F 15.7 °F 26.4 °F 94% 29.92 in 1.2 mi North 17.3 mph - N/A   Overcast
4:15 PM 28.0 °F 16.5 °F 26.1 °F 92% 29.93 in 2.0 mi North 15.0 mph - N/A   Overcast
4:35 PM 27.5 °F 14.6 °F 25.5 °F 92% 29.93 in 7.0 mi North 18.4 mph 23.0 mph N/A   Overcast
5:15 PM 27.5 °F 15.4 °F 24.8 °F 90% 29.94 in 10.0 mi North 16.1 mph - N/A   Overcast
5:35 PM 27.5 °F 15.9 °F 24.8 °F 90% 29.95 in 5.0 mi North 15.0 mph - N/A   Overcast
5:55 PM 27.5 °F 16.3 °F 24.8 °F 90% 29.95 in 10.0 mi North 13.8 mph - N/A   Overcast
6:15 PM 27.5 °F 16.3 °F 24.6 °F 89% 29.97 in 7.0 mi North 13.8 mph - N/A   Overcast
6:35 PM 27.5 °F 15.9 °F 24.6 °F 89% 29.98 in 7.0 mi North 15.0 mph - N/A   Overcast
6:55 PM 27.5 °F 15.9 °F 24.8 °F 90% 29.98 in 7.0 mi North 15.0 mph - N/A   Overcast
7:15 PM 27.5 °F 15.9 °F 24.8 °F 90% 29.98 in 10.0 mi North 15.0 mph - N/A   Overcast
7:35 PM 27.5 °F 15.9 °F 24.4 °F 88% 29.98 in 10.0 mi North 15.0 mph - N/A   Overcast
7:55 PM 27.5 °F 16.3 °F 23.9 °F 86% 29.98 in 10.0 mi North 13.8 mph - N/A   Overcast
8:15 PM 27.5 °F 15.0 °F 23.5 °F 85% 29.98 in 10.0 mi North 17.3 mph 21.9 mph N/A   Overcast
8:35 PM 27.9 °F 15.1 °F 22.8 °F 81% 29.98 in 10.0 mi North 18.4 mph - N/A   Overcast
8:55 PM 28.2 °F 16.8 °F 23.0 °F 81% 29.99 in 10.0 mi North 15.0 mph - N/A   Overcast
9:15 PM 28.2 °F 15.9 °F 22.6 °F 80% 29.99 in 10.0 mi North 17.3 mph - N/A   Overcast
9:35 PM 28.2 °F 17.2 °F 22.1 °F 78% 30.00 in 10.0 mi North 13.8 mph - N/A   Overcast
9:55 PM 28.4 °F 18.0 °F 22.5 °F 78% 30.01 in 10.0 mi North 12.7 mph - N/A   Overcast
10:15 PM 28.6 °F 18.2 °F 23.2 °F 80% 30.01 in 10.0 mi North 12.7 mph - N/A   Overcast
10:35 PM 28.9 °F 19.2 °F 23.2 °F 79% 30.01 in 10.0 mi North 11.5 mph - N/A   Overcast
10:55 PM 28.8 °F 19.0 °F 23.7 °F 81% 30.01 in 10.0 mi North 11.5 mph - N/A   Overcast
11:15 PM 28.9 °F 19.8 °F 24.3 °F 83% 30.02 in 10.0 mi North 10.4 mph - N/A   Overcast
11:35 PM 28.9 °F 18.6 °F 23.9 °F 81% 30.01 in 10.0 mi North 12.7 mph - N/A   Overcast
11:55 PM 28.8 °F 19.0 °F 23.7 °F 81% 30.01 in 10.0 mi North 11.5 mph - N/A   Overcast